QPF
0.02 0.01 0.02 0.02 0.02 0.04 0.05 0.06 0.08 0.11 0.16 0.21 0.18 0.13 0.10 0.07 0.05 0.03 0.02 0.01 0.01 0.01 0.01 0.01 0.01 0.02 0.04 0.08 0.09 0.09 0.08 0.07 0.06 0.05 0.05 0.05 0.06 0.08
0.03 0.04 0.04 0.03 0.04 0.05 0.07 0.09 0.10 0.11 0.14 0.17 0.16 0.10 0.06 0.04 0.03 0.02 0.02 0.01 0.00 0.00 0.00 0.00 0.00 0.00 0.01 0.02 0.03 0.04 0.04 0.04 0.04 0.03 0.03 0.03 0.03 0.03
0.09 0.08 0.07 0.05 0.06 0.09 0.10 0.10 0.11 0.11 0.11 0.11 0.09 0.06 0.03 0.01 0.01 0.01 0.00 0.00 0.00 0.00 0.00 0.00 0.00 0.00 0.00 0.00 0.00 0.01 0.01 0.01 0.01 0.01 0.01 0.01 0.01 0.01
0.16 0.14 0.11 0.08 0.07 0.08 0.09 0.08 0.08 0.08 0.06 0.05 0.03 0.02 0.01 0.00 0.00 0.00 0.00 0.00 0.00 0.00 0.00 0.00 0.00 0.00 0.00 0.00 0.00 0.00 0.00 0.00 0.00 0.00 0.00 0.00 0.00 0.01
0.21 0.19 0.15 0.11 0.08 0.07 0.07 0.05 0.05 0.05 0.03 0.02 0.01 0.00 0.00 0.00 0.00 0.00 0.00 0.00 0.00 0.00 0.00 0.00 0.00 0.00 0.00 0.00 0.00 0.00 0.00 0.00 0.00 0.00 0.00 0.00 0.00 0.00
0.22 0.20 0.17 0.11 0.07 0.06 0.05 0.04 0.03 0.02 0.01 0.01 0.00 0.00 0.00 0.00 0.00 0.00 0.00 0.00 0.00 0.00 0.00 0.00 0.00 0.00 0.00 0.00 0.00 0.00 0.00 0.00 0.00 0.00 0.00 0.00 0.00 0.00
0.20 0.17 0.15 0.11 0.08 0.05 0.04 0.02 0.01 0.01 0.00 0.00 0.00 0.00 0.00 0.00 0.00 0.00 0.00 0.00 0.00 0.00 0.00 0.00 0.00 0.00 0.00 0.00 0.00 0.00 0.00 0.00 0.00 0.00 0.00 0.00 0.00 0.00
0.15 0.11 0.09 0.08 0.08 0.06 0.03 0.01 0.01 0.00 0.00 0.00 0.00 0.00 0.00 0.00 0.00 0.00 0.00 0.00 0.00 0.00 0.00 0.00 0.00 0.00 0.00 0.00 0.00 0.00 0.00 0.00 0.00 0.00 0.00 0.00 0.00 0.00
0.07 0.04 0.02 0.02 0.03 0.03 0.01 0.00 0.00 0.00 0.00 0.00 0.00 0.00 0.00 0.00 0.00 0.00 0.00 0.00 0.00 0.00 0.00 0.00 0.00 0.00 0.00 0.00 0.00 0.00 0.00 0.00 0.00 0.00 0.00 0.00 0.00 0.00
0.03 0.01 0.01 0.01 0.01 0.01 0.00 0.00 0.00 0.00 0.00 0.00 0.00 0.00 0.00 0.00 0.00 0.00 0.00 0.00 0.00 0.00 0.00 0.00 0.00 0.00 0.00 0.00 0.00 0.00 0.00 0.00 0.00 0.00 0.00 0.00 0.00 0.00
0.01 0.01 0.01 0.00 0.00 0.00 0.00 0.00 0.00 0.00 0.00 0.00 0.00 0.00 0.00 0.00 0.00 0.00 0.00 0.00 0.00 0.00 0.00 0.00 0.00 0.00 0.00 0.00 0.00 0.00 0.00 0.00 0.00 0.00 0.00 0.00 0.00 0.00
0.00 0.00 0.00 0.00 0.00 0.00 0.00 0.00 0.00 0.00 0.00 0.00 0.00 0.00 0.00 0.00 0.00 0.00 0.00 0.00 0.00 0.00 0.00 0.00 0.00 0.00 0.00 0.00 0.00 0.00 0.00 0.00 0.00 0.00 0.00 0.00 0.01 0.01
0.00 0.00 0.00 0.00 0.00 0.00 0.00 0.00 0.00 0.00 0.00 0.00 0.00 0.00 0.00 0.00 0.00 0.00 0.00 0.00 0.00 0.00 0.00 0.00 0.00 0.00 0.00 0.00 0.00 0.00 0.00 0.00 0.00 0.00 0.01 0.01 0.01 0.03
0.00 0.00 0.00 0.00 0.00 0.00 0.00 0.00 0.00 0.00 0.00 0.00 0.00 0.00 0.00 0.00 0.00 0.00 0.00 0.00 0.00 0.00 0.00 0.00 0.00 0.00 0.00 0.00 0.00 0.00 0.00 0.00 0.00 0.01 0.01 0.02 0.04 0.07
0.00 0.00 0.00 0.00 0.00 0.00 0.00 0.00 0.00 0.00 0.00 0.00 0.00 0.00 0.00 0.00 0.00 0.00 0.00 0.00 0.00 0.00 0.00 0.00 0.00 0.00 0.00 0.00 0.00 0.00 0.00 0.00 0.00 0.01 0.02 0.04 0.06 0.09
0.00 0.00 0.00 0.00 0.00 0.00 0.00 0.00 0.00 0.00 0.00 0.00 0.00 0.00 0.00 0.00 0.00 0.00 0.00 0.00 0.00 0.00 0.00 0.00 0.00 0.00 0.00 0.00 0.00 0.00 0.00 0.00 0.00 0.00 0.01 0.03 0.06 0.10
0.00 0.00 0.00 0.00 0.00 0.00 0.00 0.00 0.00 0.00 0.00 0.00 0.00 0.00 0.00 0.00 0.00 0.00 0.00 0.00 0.00 0.00 0.00 0.00 0.00 0.00 0.00 0.00 0.00 0.00 0.00 0.00 0.00 0.00 0.00 0.02 0.05 0.08
0.00 0.00 0.00 0.00 0.00 0.00 0.00 0.00 0.00 0.00 0.00 0.00 0.00 0.00 0.00 0.00 0.00 0.00 0.00 0.00 0.00 0.00 0.00 0.00 0.00 0.00 0.00 0.00 0.00 0.00 0.00 0.00 0.00 0.00 0.00 0.01 0.02 0.04
0.00 0.00 0.00 0.00 0.00 0.00 0.00 0.00 0.00 0.00 0.00 0.00 0.00 0.00 0.00 0.00 0.00 0.00 0.00 0.00 0.00 0.00 0.00 0.00 0.00 0.00 0.00 0.00 0.00 0.00 0.00 0.00 0.00 0.00 0.00 0.00 0.01 0.02
0.00 0.00 0.00 0.00 0.00 0.00 0.00 0.00 0.00 0.00 0.00 0.00 0.00 0.00 0.00 0.00 0.00 0.00 0.00 0.00 0.00 0.00 0.00 0.00 0.00 0.00 0.00 0.00 0.00 0.00 0.00 0.00 0.00 0.00 0.00 0.00 0.00 0.00
0.00 0.00 0.00 0.00 0.00 0.00 0.00 0.00 0.00 0.00 0.00 0.00 0.00 0.00 0.00 0.00 0.00 0.00 0.00 0.00 0.00 0.00 0.00 0.00 0.00 0.00 0.00 0.00 0.00 0.00 0.00 0.00 0.00 0.00 0.00 0.00 0.00 0.00
0.00 0.00 0.00 0.00 0.00 0.00 0.00 0.00 0.00 0.00 0.00 0.00 0.00 0.00 0.00 0.00 0.00 0.00 0.00 0.00 0.00 0.00 0.00 0.00 0.00 0.00 0.00 0.00 0.00 0.00 0.00 0.00 0.00 0.00 0.00 0.00 0.00 0.00
0.00 0.00 0.00 0.00 0.00 0.00 0.00 0.00 0.00 0.00 0.00 0.00 0.00 0.00 0.00 0.00 0.00 0.00 0.00 0.00 0.00 0.00 0.00 0.00 0.00 0.00 0.00 0.00 0.00 0.00 0.00 0.00 0.00 0.00 0.00 0.00 0.00 0.00
MSLP
1005.83 1006.18 1006.54 1006.88 1007.18 1007.42 1007.60 1007.72 1007.81 1007.87 1007.91 1007.94 1007.95 1007.94 1007.90 1007.82 1007.73 1007.62 1007.52 1007.45 1007.43 1007.46 1007.56 1007.71 1007.90 1008.11 1008.33 1008.56 1008.78 1009.01 1009.25 1009.51 1009.80 1010.11 1010.43 1010.76 1011.07 1011.35
1005.45 1005.83 1006.22 1006.60 1006.94 1007.21 1007.44 1007.63 1007.79 1007.94 1008.08 1008.21 1008.31 1008.39 1008.42 1008.40 1008.34 1008.25 1008.15 1008.06 1008.01 1008.02 1008.08 1008.20 1008.37 1008.56 1008.77 1008.97 1009.17 1009.37 1009.57 1009.77 1010.00 1010.24 1010.49 1010.74 1010.98 1011.18
1005.19 1005.59 1006.01 1006.41 1006.77 1007.08 1007.36 1007.60 1007.83 1008.06 1008.29 1008.51 1008.71 1008.87 1008.98 1009.02 1009.00 1008.93 1008.83 1008.73 1008.66 1008.65 1008.68 1008.78 1008.93 1009.11 1009.30 1009.49 1009.67 1009.83 1009.99 1010.14 1010.30 1010.47 1010.64 1010.80 1010.95 1011.07
1005.11 1005.52 1005.95 1006.36 1006.73 1007.07 1007.37 1007.66 1007.94 1008.24 1008.54 1008.84 1009.12 1009.36 1009.53 1009.62 1009.64 1009.59 1009.50 1009.40 1009.32 1009.28 1009.30 1009.38 1009.51 1009.67 1009.84 1010.01 1010.16 1010.29 1010.40 1010.50 1010.58 1010.67 1010.76 1010.84 1010.90 1010.93
1005.24 1005.64 1006.06 1006.46 1006.84 1007.18 1007.51 1007.82 1008.15 1008.49 1008.84 1009.20 1009.53 1009.82 1010.04 1010.17 1010.22 1010.19 1010.12 1010.02 1009.93 1009.88 1009.88 1009.93 1010.04 1010.17 1010.32 1010.46 1010.57 1010.65 1010.71 1010.74 1010.75 1010.76 1010.76 1010.75 1010.73 1010.68
1005.57 1005.94 1006.33 1006.72 1007.08 1007.43 1007.76 1008.08 1008.43 1008.79 1009.17 1009.55 1009.91 1010.23 1010.47 1010.63 1010.71 1010.70 1010.63 1010.54 1010.45 1010.39 1010.37 1010.40 1010.48 1010.58 1010.69 1010.78 1010.84 1010.87 1010.86 1010.82 1010.76 1010.69 1010.61 1010.51 1010.41 1010.28
1006.05 1006.39 1006.74 1007.10 1007.45 1007.78 1008.10 1008.43 1008.77 1009.13 1009.51 1009.89 1010.26 1010.58 1010.83 1011.00 1011.08 1011.09 1011.04 1010.95 1010.86 1010.80 1010.77 1010.78 1010.82 1010.88 1010.94 1010.98 1010.99 1010.95 1010.87 1010.75 1010.61 1010.46 1010.30 1010.13 1009.95 1009.74
1006.61 1006.91 1007.23 1007.56 1007.88 1008.19 1008.50 1008.82 1009.14 1009.49 1009.85 1010.22 1010.56 1010.86 1011.11 1011.27 1011.36 1011.38 1011.34 1011.27 1011.19 1011.13 1011.09 1011.08 1011.09 1011.11 1011.12 1011.09 1011.03 1010.92 1010.77 1010.58 1010.37 1010.14 1009.90 1009.66 1009.40 1009.13
1007.18 1007.45 1007.74 1008.04 1008.34 1008.64 1008.93 1009.23 1009.54 1009.86 1010.19 1010.52 1010.83 1011.11 1011.33 1011.49 1011.58 1011.60 1011.58 1011.53 1011.47 1011.41 1011.37 1011.35 1011.33 1011.31 1011.26 1011.18 1011.06 1010.88 1010.66 1010.40 1010.12 1009.82 1009.52 1009.20 1008.88 1008.53
1007.70 1007.95 1008.22 1008.51 1008.80 1009.08 1009.36 1009.65 1009.93 1010.23 1010.53 1010.82 1011.10 1011.34 1011.54 1011.69 1011.78 1011.81 1011.81 1011.78 1011.74 1011.70 1011.67 1011.63 1011.60 1011.54 1011.45 1011.32 1011.13 1010.90 1010.61 1010.30 1009.95 1009.60 1009.23 1008.86 1008.47 1008.06
1008.15 1008.39 1008.66 1008.95 1009.23 1009.52 1009.79 1010.07 1010.34 1010.61 1010.88 1011.15 1011.39 1011.61 1011.78 1011.92 1012.01 1012.06 1012.08 1012.07 1012.06 1012.04 1012.01 1011.98 1011.93 1011.85 1011.72 1011.55 1011.31 1011.03 1010.70 1010.33 1009.94 1009.54 1009.13 1008.71 1008.27 1007.80
1008.52 1008.78 1009.07 1009.36 1009.65 1009.94 1010.22 1010.50 1010.76 1011.02 1011.27 1011.51 1011.73 1011.93 1012.09 1012.22 1012.31 1012.37 1012.41 1012.43 1012.44 1012.44 1012.42 1012.39 1012.33 1012.23 1012.08 1011.87 1011.61 1011.29 1010.92 1010.52 1010.10 1009.67 1009.23 1008.78 1008.31 1007.80
1008.84 1009.14 1009.45 1009.76 1010.06 1010.36 1010.65 1010.93 1011.20 1011.45 1011.70 1011.93 1012.14 1012.32 1012.47 1012.60 1012.70 1012.77 1012.82 1012.86 1012.88 1012.89 1012.88 1012.85 1012.79 1012.68 1012.51 1012.28 1011.99 1011.65 1011.27 1010.86 1010.42 1009.98 1009.53 1009.06 1008.57 1008.05
1009.13 1009.48 1009.81 1010.14 1010.46 1010.77 1011.07 1011.36 1011.63 1011.90 1012.15 1012.38 1012.59 1012.76 1012.92 1013.04 1013.14 1013.21 1013.27 1013.31 1013.35 1013.36 1013.36 1013.33 1013.26 1013.14 1012.96 1012.72 1012.43 1012.08 1011.69 1011.28 1010.85 1010.41 1009.97 1009.51 1009.03 1008.51
1009.41 1009.80 1010.16 1010.51 1010.83 1011.15 1011.46 1011.76 1012.05 1012.32 1012.59 1012.83 1013.04 1013.23 1013.38 1013.51 1013.60 1013.67 1013.73 1013.77 1013.80 1013.81 1013.81 1013.77 1013.69 1013.57 1013.39 1013.15 1012.85 1012.51 1012.14 1011.74 1011.33 1010.91 1010.49 1010.06 1009.61 1009.13
1009.66 1010.08 1010.46 1010.81 1011.15 1011.47 1011.78 1012.09 1012.40 1012.70 1012.98 1013.24 1013.47 1013.66 1013.82 1013.95 1014.04 1014.11 1014.15 1014.18 1014.20 1014.21 1014.19 1014.14 1014.06 1013.94 1013.76 1013.52 1013.24 1012.92 1012.56 1012.19 1011.81 1011.42 1011.04 1010.65 1010.25 1009.82
1009.84 1010.28 1010.67 1011.02 1011.35 1011.67 1012.00 1012.32 1012.65 1012.97 1013.28 1013.56 1013.81 1014.02 1014.19 1014.32 1014.40 1014.46 1014.50 1014.52 1014.52 1014.52 1014.49 1014.44 1014.36 1014.23 1014.06 1013.84 1013.58 1013.28 1012.95 1012.61 1012.26 1011.92 1011.58 1011.24 1010.90 1010.54
1009.89 1010.34 1010.73 1011.08 1011.41 1011.73 1012.07 1012.41 1012.76 1013.11 1013.45 1013.77 1014.05 1014.27 1014.45 1014.58 1014.67 1014.73 1014.75 1014.76 1014.76 1014.75 1014.72 1014.67 1014.59 1014.48 1014.32 1014.12 1013.88 1013.60 1013.31 1013.00 1012.69 1012.38 1012.09 1011.81 1011.52 1011.22
1009.77 1010.22 1010.61 1010.96 1011.29 1011.62 1011.97 1012.35 1012.73 1013.12 1013.49 1013.84 1014.15 1014.40 1014.60 1014.74 1014.83 1014.89 1014.92 1014.93 1014.93 1014.92 1014.90 1014.86 1014.79 1014.70 1014.56 1014.38 1014.17 1013.92 1013.65 1013.37 1013.09 1012.82 1012.57 1012.32 1012.09 1011.84
1009.46 1009.91 1010.30 1010.65 1010.99 1011.35 1011.73 1012.14 1012.56 1012.99 1013.41 1013.79 1014.13 1014.41 1014.63 1014.78 1014.89 1014.96 1015.00 1015.02 1015.04 1015.05 1015.05 1015.03 1014.99 1014.92 1014.81 1014.65 1014.46 1014.23 1013.98 1013.73 1013.47 1013.23 1013.00 1012.79 1012.59 1012.38
1008.98 1009.43 1009.82 1010.19 1010.55 1010.94 1011.36 1011.81 1012.28 1012.75 1013.21 1013.63 1014.00 1014.30 1014.54 1014.72 1014.85 1014.94 1015.01 1015.06 1015.11 1015.15 1015.18 1015.20 1015.19 1015.15 1015.06 1014.93 1014.76 1014.55 1014.32 1014.07 1013.83 1013.60 1013.39 1013.20 1013.02 1012.84
1008.37 1008.82 1009.23 1009.62 1010.02 1010.45 1010.91 1011.40 1011.91 1012.42 1012.92 1013.37 1013.76 1014.09 1014.36 1014.56 1014.72 1014.84 1014.94 1015.03 1015.12 1015.21 1015.29 1015.35 1015.38 1015.37 1015.31 1015.20 1015.04 1014.84 1014.62 1014.38 1014.14 1013.92 1013.71 1013.52 1013.36 1013.19
1007.71 1008.17 1008.59 1009.01 1009.45 1009.92 1010.42 1010.95 1011.50 1012.04 1012.55 1013.02 1013.44 1013.78 1014.07 1014.29 1014.48 1014.64 1014.78 1014.92 1015.06 1015.20 1015.33 1015.44 1015.51 1015.54 1015.51 1015.42 1015.27 1015.08 1014.86 1014.62 1014.38 1014.15 1013.95 1013.76 1013.60 1013.45
Thickness
5681 5680 5680 5679 5679 5679 5678 5678 5675 5672 5670 5671 5673 5675 5677 5680 5681 5683 5685 5686 5688 5690 5692 5694 5697 5699 5700 5701 5701 5701 5701 5701 5701 5701 5701 5702 5702 5702
5672 5671 5671 5671 5670 5670 5671 5671 5670 5668 5663 5662 5663 5665 5667 5669 5670 5672 5673 5674 5676 5678 5680 5682 5684 5686 5687 5688 5690 5690 5690 5690 5691 5692 5693 5694 5694 5695
5663 5663 5662 5662 5662 5662 5663 5663 5663 5662 5657 5652 5653 5655 5656 5657 5659 5660 5661 5662 5663 5665 5667 5670 5672 5674 5676 5677 5678 5679 5679 5680 5682 5682 5683 5684 5686 5687
5655 5654 5654 5654 5654 5654 5655 5654 5654 5654 5652 5645 5644 5644 5646 5647 5648 5649 5650 5651 5652 5654 5657 5659 5661 5663 5664 5666 5667 5668 5669 5670 5672 5673 5674 5675 5676 5678
5647 5646 5645 5646 5645 5646 5647 5646 5645 5644 5643 5640 5635 5635 5636 5637 5638 5639 5640 5642 5644 5645 5647 5649 5650 5653 5654 5655 5656 5657 5658 5660 5661 5662 5663 5665 5667 5669
5637 5637 5637 5638 5638 5638 5638 5637 5636 5634 5632 5631 5629 5627 5628 5628 5629 5630 5631 5633 5634 5636 5638 5640 5641 5643 5644 5645 5646 5646 5647 5649 5650 5651 5652 5654 5657 5659
5627 5628 5629 5630 5630 5630 5630 5629 5628 5626 5624 5623 5621 5621 5619 5620 5621 5622 5623 5624 5625 5625 5629 5630 5632 5633 5633 5634 5635 5635 5636 5637 5639 5640 5641 5643 5646 5649
5617 5617 5619 5620 5621 5620 5620 5621 5621 5619 5617 5616 5614 5613 5611 5612 5613 5615 5617 5618 5618 5617 5619 5620 5621 5622 5622 5622 5622 5624 5624 5625 5626 5628 5629 5632 5634 5638
5608 5610 5610 5610 5611 5610 5609 5610 5610 5610 5611 5611 5609 5607 5607 5607 5608 5609 5608 5608 5606 5605 5609 5610 5611 5611 5610 5610 5610 5611 5612 5613 5613 5615 5617 5619 5622 5626
5599 5601 5602 5601 5601 5602 5602 5600 5600 5600 5602 5603 5603 5601 5602 5602 5603 5603 5601 5600 5598 5597 5599 5600 5600 5599 5599 5598 5598 5598 5598 5599 5600 5601 5603 5606 5609 5614
5591 5593 5594 5594 5594 5596 5595 5593 5592 5592 5593 5594 5595 5595 5596 5596 5597 5597 5596 5596 5593 5591 5589 5590 5588 5588 5588 5587 5586 5585 5585 5585 5585 5587 5589 5592 5595 5601
5583 5584 5586 5588 5588 5590 5591 5590 5588 5586 5587 5588 5588 5589 5589 5589 5590 5590 5590 5589 5587 5585 5581 5580 5579 5577 5578 5575 5573 5571 5570 5570 5571 5572 5574 5577 5581 5586
5579 5579 5580 5582 5583 5584 5586 5587 5585 5583 5583 5584 5583 5582 5582 5582 5581 5581 5580 5581 5580 5577 5572 5571 5571 5568 5565 5563 5561 5559 5557 5556 5556 5558 5560 5563 5566 5570
5575 5575 5576 5577 5579 5580 5580 5579 5579 5580 5580 5579 5578 5576 5575 5574 5573 5573 5572 5571 5569 5567 5564 5563 5562 5558 5556 5553 5549 5547 5546 5544 5544 5545 5547 5550 5554 5557
5572 5572 5572 5572 5574 5574 5574 5574 5575 5576 5575 5574 5572 5569 5568 5567 5567 5567 5565 5564 5562 5560 5558 5556 5554 5550 5546 5542 5538 5535 5534 5533 5532 5533 5535 5537 5540 5543
5568 5567 5567 5568 5569 5568 5568 5569 5570 5570 5570 5568 5566 5564 5563 5563 5562 5561 5560 5559 5558 5555 5552 5549 5546 5543 5540 5533 5529 5525 5523 5521 5522 5522 5524 5525 5526 5529
5565 5564 5564 5564 5564 5564 5563 5563 5563 5564 5563 5562 5562 5561 5560 5559 5557 5555 5554 5554 5552 5549 5547 5544 5540 5536 5531 5526 5524 5519 5516 5514 5512 5512 5514 5515 5515 5516
5566 5564 5562 5562 5563 5562 5562 5560 5560 5560 5559 5559 5558 5558 5557 5555 5553 5551 5549 5549 5546 5543 5540 5536 5535 5534 5529 5523 5514 5512 5510 5508 5506 5505 5505 5507 5507 5506
5564 5563 5561 5560 5560 5560 5559 5559 5558 5556 5555 5555 5555 5554 5552 5551 5550 5548 5546 5544 5541 5538 5534 5530 5528 5527 5525 5521 5513 5505 5502 5501 5501 5501 5498 5498 5498 5498
5565 5563 5561 5560 5559 5558 5557 5557 5555 5553 5552 5552 5552 5550 5549 5548 5546 5544 5542 5540 5537 5534 5531 5527 5523 5519 5517 5513 5508 5503 5498 5496 5495 5495 5494 5493 5492 5491
5563 5562 5561 5560 5559 5557 5556 5555 5554 5552 5551 5550 5549 5547 5546 5545 5543 5540 5538 5533 5532 5530 5527 5523 5516 5511 5508 5507 5505 5502 5496 5491 5488 5486 5487 5489 5489 5489
5564 5563 5561 5560 5558 5557 5555 5554 5552 5551 5549 5548 5546 5544 5542 5541 5540 5537 5534 5532 5528 5525 5521 5516 5511 5509 5507 5505 5501 5497 5493 5489 5485 5482 5479 5478 5479 5480
5566 5563 5561 5559 5558 5556 5555 5553 5552 5550 5548 5546 5544 5542 5540 5537 5535 5533 5530 5527 5524 5520 5516 5513 5508 5505 5501 5497 5495 5492 5488 5485 5481 5479 5476 5471 5469 5467